sat.trackr.live / text

‹ back to catalog

STARLINK-36562

NORAD 67570 · 2026-016K

PAYLOAD ACTIVE UNKNOWN

§ Identity

Operator
Country
US
Launch date
2026-01-25
Launch site
AFWTR
Launch vehicle
Mass (kg)
RCS (m²)

Purposes: comms

External: N2YO · Heavens-Above · Gunter

§ Orbital elements

Epoch: 2026-05-25T03:15:02.352096Z

Period
93.91 min
Inclination
97.2854°
Eccentricity
0.0000110
Mean motion
15.33437791 rev/d
Perigee alt
465.5 km
Apogee alt
465.6 km
Semi-major
6,843.7 km
B*
5.7822e-4
RAAN
205.5281°
Arg perigee
155.9808°
Mean anomaly
204.1439°
Rev number
1,858

§ Raw data

STARLINK-365621 67570U 26016K   26145.13544389  .00018634  00000+0  57822-3 0  99932 67570  97.2854 205.5281 0000110 155.9808 204.1439 15.33437791 18581

JSON: /api/v1/satellites/67570 · /tle

For live sub-satellite position, see the globe view (requires WebGL).

§ Visibility from observer

Set your observer location to see the next 7 days of passes ≥ 10°. The values pass through the URL so the page stays shareable.

No JS? Fill the form by hand. The geolocation button needs JavaScript.